This demonstration page uses our WeatherBlox Daily Observations layout. Learn more.

Left ArrowRight Arrow

Hourly Observations for July 27, 2017

Temp ( °F °C ) Dew Point ( °F °C ) Humidity (%) Winds ( mph kmh ) Pressure ( in mb ) Visibility ( mi km ) Precip ( " mm )
12:53 am 00:53 Clear 77 25 48 8.9 36 36 Calm 29.91 1013 10 16 0.00 0.00
1:53 am 01:53 Clear 75 23.9 50 10 41 41 Calm 29.92 1013 10 16 0.00 0.00
2:53 am 02:53 Clear 74 23.3 51 10.6 45 45 NNW 5 7 29.93 1013 10 16 0.00 0.00
3:53 am 03:53 Clear 72 22.2 52 11.1 50 50 N 3 6 29.92 1013 10 16 0.00 0.00
4:53 am 04:53 Clear 72 22.2 52 11.1 50 50 N 3 6 29.93 1013 10 16 0.00 0.00
5:53 am 05:53 Clear 71 21.7 53 11.7 53 53 NNW 5 7 29.93 1014 10 16 0.00 0.00
6:53 am 06:53 Sunny 74 23.3 54 12.2 50 50 NNW 3 6 29.94 1014 10 16 0.00 0.00
7:53 am 07:53 Sunny 78 25.6 54 12.2 43 43 N 3 6 29.94 1014 10 16 0.00 0.00
8:53 am 08:53 Sunny 84 28.9 51 10.6 32 32 N 5 7 29.95 1014 10 16 0.00 0.00
9:53 am 09:53 Sunny 89 31.7 50 10 26 26 VRB 3 6 29.93 1014 10 16 0.00 0.00
10:53 am 10:53 Sunny 93 33.9 50 10 23 23 NE 6 9 29.91 1013 10 16 0.00 0.00
11:53 am 11:53 Sunny 95 35 48 8.9 20 20 Calm 29.90 1013 10 16 0.00 0.00
12:53 pm 12:53 Sunny 98 36.7 48 8.9 18 18 VRB 6 9 29.88 1012 10 16 0.00 0.00
1:53 pm 13:53 Sunny 100 37.8 48 8.9 17 17 SW 7 11 29.86 1011 10 16 0.00 0.00
2:53 pm 14:53 Sunny 101 38.3 47 8.3 16 16 SSW 10 17 29.84 1011 10 16 0.00 0.00
3:53 pm 15:53 Sunny 104 40 46 7.8 14 14 SSE 9 15 29.82 1010 10 16 0.00 0.00
4:53 pm 16:53 Sunny 102 38.9 43 6.1 13 13 VRB 3 6 29.80 1009 10 16 0.00 0.00
5:53 pm 17:53 Sunny 103 39.4 43 6.1 13 13 SSE 9 15 29.78 1008 10 16 0.00 0.00
6:53 pm 18:53 Sunny 102 38.9 46 7.8 15 15 SSE 10 17 29.77 1008 10 16 0.00 0.00
7:53 pm 19:53 Sunny 98 36.7 47 8.3 17 17 SSE 8 13 29.77 1008 10 16 0.00 0.00
8:53 pm 20:53 Clear 91 32.8 49 9.4 24 24 S 6 9 29.78 1008 10 16 0.00 0.00
9:53 pm 21:53 Clear 88 31.1 53 11.7 30 30 SE 5 7 29.79 1009 10 16 0.00 0.00
10:53 pm 22:53 Clear 87 30.6 55 12.8 34 34 SSE 3 6 29.80 1009 10 16 0.00 0.00
11:53 pm 23:53 Clear 84 28.9 55 12.8 37 37 undefined N/A 29.81 1010 10 16 0.00 0.00

Powered by AerisWeather